Precipitable_Water
0.60 0.60 0.60 0.62 0.63 0.66 0.69 0.71 0.72 0.73 0.72 0.72 0.75 0.77 0.76 0.75 0.74 0.73 0.73 0.73 0.72 0.72 0.70 0.69 0.67 0.62 0.57 0.53 0.49 0.47 0.47 0.38 0.32 0.28 0.28 0.32 0.39 0.42 0.36 0.38 0.41 0.39 0.40 0.44 0.53 0.60 0.60 0.70 0.75 0.88 0.93 1.02 1.05 1.03 1.23 1.23 1.19 1.19 1.04 0.96 0.90 0.96 0.91 1.07 1.06 1.09 1.13 1.07 1.00 1.08 1.10 1.06 1.01 1.08 1.14 1.30 1.28 1.29 1.27 1.25 1.33 1.37 1.39 1.52 1.55 1.59 1.62 1.62
0.55 0.55 0.54 0.54 0.55 0.56 0.56 0.58 0.61 0.63 0.66 0.68 0.71 0.72 0.73 0.72 0.73 0.72 0.72 0.73 0.74 0.72 0.70 0.69 0.69 0.67 0.63 0.57 0.53 0.50 0.43 0.34 0.28 0.29 0.27 0.31 0.37 0.41 0.42 0.43 0.41 0.40 0.38 0.36 0.38 0.50 0.55 0.59 0.73 0.86 0.90 0.91 1.14 0.99 1.10 1.06 1.20 0.96 0.99 0.94 0.89 0.98 1.06 1.19 1.21 1.26 1.15 1.07 1.06 1.07 1.07 1.07 1.04 1.05 1.13 1.17 1.15 1.15 1.12 1.17 1.19 1.22 1.34 1.48 1.53 1.52 1.56 1.57
0.51 0.50 0.50 0.49 0.49 0.50 0.50 0.51 0.52 0.54 0.56 0.59 0.63 0.67 0.68 0.70 0.69 0.69 0.69 0.71 0.73 0.72 0.70 0.69 0.68 0.68 0.66 0.62 0.56 0.53 0.44 0.29 0.30 0.23 0.27 0.39 0.37 0.39 0.40 0.45 0.41 0.40 0.32 0.28 0.32 0.43 0.51 0.62 0.72 0.82 0.89 0.91 1.01 0.95 1.00 1.00 1.11 0.99 0.86 0.84 0.90 1.09 1.12 1.21 1.28 1.18 1.39 1.29 1.17 1.04 1.01 1.07 1.01 1.09 1.06 1.12 1.08 1.17 1.10 1.09 1.18 1.23 1.22 1.30 1.37 1.44 1.47 1.49
0.47 0.45 0.44 0.44 0.44 0.45 0.46 0.47 0.49 0.50 0.51 0.53 0.56 0.58 0.60 0.62 0.64 0.65 0.66 0.68 0.69 0.71 0.71 0.71 0.70 0.70 0.68 0.63 0.63 0.55 0.42 0.34 0.20 0.19 0.29 0.36 0.39 0.39 0.40 0.42 0.40 0.38 0.33 0.33 0.37 0.38 0.51 0.68 0.75 0.81 0.89 0.82 0.95 0.97 0.94 0.98 1.01 1.07 0.87 0.75 0.96 1.13 1.03 1.19 1.24 1.19 1.35 1.23 1.15 1.13 1.07 1.04 0.96 1.06 1.07 1.09 1.04 1.18 1.21 1.23 1.19 1.14 1.18 1.24 1.30 1.36 1.42 1.42
0.44 0.43 0.43 0.42 0.42 0.42 0.42 0.43 0.44 0.45 0.46 0.47 0.48 0.49 0.51 0.55 0.58 0.61 0.62 0.64 0.67 0.70 0.72 0.72 0.72 0.71 0.69 0.64 0.62 0.60 0.41 0.18 0.23 0.42 0.48 0.46 0.43 0.41 0.41 0.41 0.39 0.33 0.30 0.29 0.40 0.41 0.44 0.56 0.71 0.80 0.88 0.81 0.81 0.96 0.87 0.97 1.03 1.06 0.94 0.96 1.01 1.12 1.09 1.22 1.23 1.30 1.31 1.09 1.09 1.05 0.90 1.08 1.18 1.04 1.08 1.07 1.01 1.05 1.19 1.28 1.37 1.24 1.26 1.25 1.26 1.33 1.38 1.37
0.41 0.42 0.41 0.41 0.41 0.40 0.40 0.42 0.43 0.43 0.43 0.43 0.44 0.45 0.47 0.49 0.53 0.57 0.58 0.59 0.63 0.68 0.72 0.73 0.74 0.73 0.71 0.66 0.62 0.55 0.38 0.12 0.45 0.44 0.50 0.50 0.49 0.47 0.46 0.45 0.39 0.32 0.29 0.29 0.36 0.44 0.43 0.52 0.67 0.70 0.77 0.80 0.75 0.75 0.89 0.87 1.07 0.79 0.92 1.05 1.16 1.19 1.07 1.21 1.32 1.27 1.26 1.10 1.18 0.89 1.10 1.14 1.07 1.05 1.12 1.06 1.10 1.15 1.30 1.36 1.36 1.34 1.35 1.33 1.32 1.32 1.29 1.30
0.42 0.41 0.40 0.40 0.40 0.41 0.41 0.40 0.40 0.39 0.38 0.39 0.41 0.41 0.44 0.46 0.48 0.51 0.54 0.57 0.60 0.66 0.73 0.76 0.76 0.75 0.72 0.69 0.59 0.49 0.38 0.24 0.33 0.50 0.49 0.40 0.46 0.53 0.53 0.50 0.44 0.35 0.29 0.30 0.41 0.54 0.52 0.56 0.64 0.69 0.74 0.70 0.75 0.74 0.84 0.87 0.91 0.91 0.85 0.94 1.07 1.12 1.09 1.22 1.26 1.22 1.11 1.12 1.07 1.17 1.18 1.10 1.00 1.08 1.09 1.08 1.17 1.14 1.29 1.48 1.40 1.32 1.43 1.39 1.28 1.31 1.25 1.26
0.41 0.41 0.40 0.40 0.40 0.40 0.39 0.40 0.38 0.37 0.37 0.37 0.37 0.38 0.40 0.42 0.44 0.46 0.48 0.52 0.58 0.65 0.74 0.78 0.79 0.77 0.75 0.61 0.51 0.42 0.38 0.26 0.27 0.39 0.44 0.40 0.39 0.43 0.48 0.46 0.41 0.34 0.30 0.29 0.47 0.63 0.62 0.54 0.58 0.71 0.70 0.62 0.65 0.70 0.78 0.81 0.86 0.79 0.80 0.90 1.07 1.18 1.12 1.19 1.18 1.16 1.10 1.10 1.17 1.15 1.01 0.92 1.00 1.03 1.07 1.08 1.15 1.19 1.26 1.35 1.33 1.28 1.27 1.31 1.32 1.30 1.30 1.30
0.39 0.38 0.38 0.38 0.39 0.39 0.38 0.38 0.38 0.38 0.37 0.35 0.36 0.36 0.36 0.37 0.40 0.42 0.45 0.49 0.56 0.66 0.73 0.79 0.81 0.82 0.79 0.66 0.50 0.40 0.33 0.39 0.39 0.42 0.42 0.36 0.37 0.40 0.40 0.34 0.37 0.32 0.31 0.33 0.55 0.68 0.62 0.52 0.65 0.67 0.59 0.62 0.71 0.64 0.71 0.71 0.71 0.80 0.82 0.87 0.88 0.93 1.19 1.29 1.15 1.10 1.06 1.05 1.12 1.02 0.95 0.98 1.01 1.07 1.02 1.11 1.14 1.19 1.24 1.30 1.28 1.18 1.11 1.16 1.27 1.32 1.29 1.30
0.37 0.36 0.36 0.36 0.37 0.36 0.37 0.37 0.38 0.36 0.35 0.36 0.33 0.34 0.35 0.36 0.37 0.39 0.41 0.47 0.56 0.63 0.70 0.76 0.82 0.83 0.72 0.56 0.48 0.33 0.42 0.48 0.42 0.53 0.49 0.43 0.38 0.38 0.35 0.36 0.34 0.33 0.34 0.37 0.53 0.63 0.54 0.57 0.58 0.71 0.67 0.70 0.68 0.61 0.70 0.68 0.68 0.86 0.81 0.79 0.81 0.89 0.93 1.07 1.07 1.07 1.06 1.02 1.10 0.99 1.02 0.95 1.01 0.94 0.82 1.09 1.17 1.18 1.21 1.27 1.26 1.13 1.05 1.08 1.21 1.31 1.31 1.27
0.35 0.35 0.35 0.34 0.34 0.34 0.34 0.34 0.34 0.35 0.34 0.32 0.32 0.32 0.33 0.35 0.36 0.36 0.37 0.45 0.55 0.61 0.67 0.75 0.82 0.81 0.63 0.58 0.43 0.34 0.55 0.39 0.40 0.57 0.50 0.42 0.40 0.35 0.33 0.39 0.42 0.36 0.39 0.44 0.50 0.58 0.56 0.55 0.59 0.67 0.64 0.56 0.63 0.57 0.62 0.67 0.75 0.80 0.87 0.88 0.81 0.82 0.88 0.93 1.01 1.07 1.11 1.04 1.10 1.05 0.99 1.00 1.02 0.91 0.88 1.06 1.17 1.18 1.13 1.22 1.27 1.16 1.09 1.11 1.15 1.25 1.32 1.28
0.35 0.35 0.34 0.33 0.33 0.33 0.33 0.33 0.32 0.32 0.31 0.29 0.29 0.32 0.33 0.33 0.34 0.35 0.36 0.46 0.53 0.60 0.64 0.70 0.78 0.78 0.69 0.59 0.45 0.46 0.52 0.42 0.47 0.54 0.55 0.44 0.47 0.39 0.41 0.45 0.52 0.42 0.43 0.47 0.51 0.59 0.56 0.51 0.53 0.53 0.50 0.55 0.45 0.54 0.55 0.66 0.69 0.75 0.79 0.72 0.82 0.85 0.74 0.77 0.83 0.99 1.04 1.00 1.06 1.08 1.00 0.95 0.95 0.88 0.91 1.07 1.13 1.14 1.10 1.16 1.23 1.20 1.15 1.15 1.16 1.19 1.29 1.30
0.36 0.35 0.35 0.34 0.33 0.32 0.32 0.31 0.30 0.30 0.27 0.27 0.28 0.30 0.32 0.33 0.33 0.35 0.39 0.45 0.52 0.57 0.60 0.66 0.72 0.75 0.64 0.46 0.52 0.65 0.60 0.54 0.51 0.47 0.55 0.58 0.44 0.49 0.48 0.49 0.55 0.51 0.49 0.51 0.56 0.62 0.57 0.50 0.48 0.47 0.54 0.56 0.41 0.38 0.61 0.63 0.60 0.67 0.76 0.73 0.74 0.73 0.70 0.79 0.81 0.86 0.94 0.98 1.05 1.05 0.71 0.81 0.89 0.95 0.93 1.08 1.11 1.11 1.10 1.14 1.16 1.18 1.13 1.17 1.22 1.21 1.25 1.29
0.38 0.37 0.36 0.35 0.33 0.33 0.32 0.31 0.30 0.27 0.25 0.26 0.27 0.29 0.31 0.33 0.34 0.37 0.44 0.48 0.53 0.56 0.57 0.64 0.68 0.66 0.58 0.46 0.61 0.66 0.66 0.60 0.56 0.50 0.43 0.54 0.55 0.41 0.43 0.50 0.50 0.52 0.52 0.52 0.64 0.64 0.58 0.51 0.45 0.45 0.57 0.49 0.44 0.46 0.48 0.57 0.63 0.51 0.61 0.75 0.64 0.63 0.62 0.79 0.81 0.88 0.86 0.98 1.03 1.03 0.73 0.78 0.87 0.95 0.97 1.07 1.14 1.08 1.06 1.14 1.17 1.21 1.14 1.15 1.18 1.22 1.25 1.27
0.40 0.39 0.38 0.36 0.35 0.34 0.33 0.32 0.29 0.26 0.25 0.25 0.26 0.30 0.33 0.35 0.39 0.44 0.49 0.53 0.56 0.57 0.58 0.66 0.66 0.56 0.44 0.45 0.66 0.71 0.71 0.69 0.52 0.49 0.48 0.40 0.52 0.48 0.37 0.47 0.46 0.46 0.49 0.52 0.61 0.67 0.60 0.53 0.44 0.39 0.41 0.51 0.50 0.47 0.39 0.40 0.49 0.54 0.51 0.50 0.60 0.54 0.60 0.72 0.81 0.80 0.73 0.86 0.95 0.95 0.74 0.76 0.83 0.88 0.97 1.06 1.13 1.08 1.09 1.16 1.21 1.24 1.21 1.21 1.16 1.15 1.24 1.28
0.40 0.40 0.39 0.38 0.37 0.35 0.33 0.31 0.29 0.26 0.26 0.26 0.27 0.30 0.34 0.39 0.44 0.50 0.54 0.57 0.61 0.56 0.59 0.52 0.55 0.49 0.41 0.35 0.47 0.72 0.67 0.54 0.50 0.52 0.52 0.42 0.48 0.52 0.49 0.48 0.50 0.45 0.46 0.48 0.60 0.67 0.64 0.55 0.41 0.40 0.41 0.44 0.39 0.39 0.43 0.40 0.37 0.46 0.43 0.46 0.49 0.52 0.53 0.57 0.64 0.74 0.74 0.77 0.86 0.85 0.75 0.80 0.78 0.84 0.96 1.05 1.09 1.04 1.10 1.17 1.25 1.23 1.23 1.23 1.16 1.21 1.25 1.27
0.40 0.39 0.39 0.38 0.37 0.35 0.34 0.31 0.28 0.28 0.27 0.28 0.29 0.31 0.36 0.43 0.48 0.51 0.58 0.68 0.66 0.61 0.58 0.55 0.60 0.57 0.27 0.51 0.60 0.50 0.51 0.58 0.62 0.51 0.48 0.44 0.40 0.57 0.63 0.54 0.45 0.43 0.45 0.50 0.54 0.62 0.64 0.52 0.51 0.44 0.43 0.38 0.36 0.37 0.35 0.34 0.34 0.35 0.39 0.37 0.47 0.49 0.53 0.47 0.58 0.60 0.71 0.69 0.73 0.82 0.77 0.80 0.79 0.88 0.90 1.00 1.08 1.04 1.08 1.24 1.25 1.19 1.19 1.21 1.26 1.24 1.22 1.19
0.40 0.39 0.38 0.38 0.37 0.35 0.33 0.32 0.28 0.28 0.29 0.30 0.31 0.33 0.38 0.46 0.50 0.49 0.61 0.72 0.75 0.60 0.59 0.65 0.62 0.52 0.31 0.38 0.30 0.38 0.55 0.55 0.58 0.56 0.48 0.43 0.42 0.60 0.67 0.52 0.47 0.50 0.53 0.49 0.55 0.49 0.58 0.48 0.50 0.36 0.35 0.33 0.35 0.32 0.28 0.24 0.30 0.35 0.34 0.33 0.38 0.48 0.52 0.50 0.46 0.55 0.59 0.68 0.69 0.77 0.76 0.79 0.79 0.90 0.93 0.99 1.08 1.07 1.07 1.06 1.12 1.11 1.11 1.16 1.19 1.24 1.25 1.20
0.38 0.39 0.37 0.37 0.36 0.34 0.32 0.31 0.28 0.29 0.30 0.34 0.35 0.38 0.47 0.53 0.46 0.55 0.61 0.65 0.56 0.46 0.31 0.35 0.36 0.17 0.23 0.39 0.51 0.47 0.49 0.55 0.57 0.55 0.46 0.41 0.44 0.62 0.75 0.71 0.65 0.60 0.53 0.44 0.44 0.40 0.54 0.50 0.48 0.37 0.27 0.28 0.29 0.32 0.28 0.30 0.36 0.36 0.37 0.33 0.35 0.36 0.43 0.45 0.49 0.56 0.57 0.63 0.64 0.70 0.71 0.74 0.78 0.86 0.92 0.99 1.05 1.03 1.09 1.02 1.05 1.11 1.22 1.21 1.22 1.18 1.23 1.24
0.37 0.37 0.37 0.35 0.34 0.32 0.31 0.30 0.28 0.29 0.31 0.35 0.35 0.34 0.37 0.22 0.18 0.40 0.50 0.40 0.40 0.44 0.47 0.52 0.58 0.45 0.36 0.43 0.45 0.54 0.57 0.52 0.48 0.50 0.47 0.46 0.45 0.51 0.58 0.57 0.57 0.56 0.50 0.36 0.40 0.37 0.57 0.43 0.33 0.27 0.27 0.29 0.30 0.36 0.39 0.35 0.35 0.37 0.37 0.34 0.33 0.33 0.37 0.44 0.46 0.54 0.61 0.61 0.62 0.68 0.72 0.72 0.75 0.80 0.88 0.92 0.99 1.04 1.06 1.08 1.03 1.04 1.11 1.21 1.23 1.16 1.21 1.26
0.37 0.36 0.35 0.34 0.33 0.31 0.29 0.28 0.28 0.29 0.32 0.36 0.38 0.31 0.18 0.18 0.13 0.12 0.18 0.19 0.21 0.21 0.19 0.21 0.34 0.32 0.36 0.46 0.50 0.47 0.41 0.43 0.50 0.48 0.45 0.47 0.47 0.46 0.43 0.49 0.48 0.40 0.40 0.42 0.41 0.52 0.54 0.41 0.31 0.33 0.33 0.34 0.35 0.36 0.42 0.41 0.32 0.31 0.33 0.31 0.30 0.32 0.31 0.39 0.46 0.55 0.58 0.57 0.61 0.70 0.72 0.73 0.73 0.76 0.81 0.90 0.98 1.00 1.00 1.07 1.08 1.03 1.05 1.19 1.21 1.10 1.11 1.24
0.35 0.35 0.34 0.33 0.34 0.31 0.27 0.28 0.28 0.29 0.32 0.36 0.41 0.28 0.24 0.22 0.27 0.29 0.29 0.17 0.18 0.22 0.21 0.20 0.22 0.24 0.28 0.29 0.40 0.42 0.43 0.37 0.41 0.46 0.44 0.44 0.45 0.36 0.42 0.46 0.43 0.36 0.41 0.46 0.47 0.46 0.34 0.29 0.32 0.36 0.39 0.37 0.40 0.39 0.36 0.37 0.34 0.28 0.28 0.28 0.26 0.27 0.33 0.39 0.47 0.51 0.57 0.59 0.60 0.67 0.67 0.69 0.72 0.77 0.79 0.81 0.89 1.00 1.01 0.96 0.95 1.12 1.09 1.20 1.25 1.19 1.23 1.26
0.37 0.35 0.34 0.33 0.33 0.32 0.28 0.28 0.32 0.30 0.30 0.35 0.33 0.33 0.24 0.26 0.29 0.33 0.33 0.26 0.19 0.20 0.23 0.22 0.18 0.16 0.18 0.25 0.30 0.38 0.30 0.31 0.32 0.41 0.39 0.41 0.42 0.37 0.45 0.45 0.43 0.42 0.45 0.44 0.34 0.33 0.28 0.24 0.34 0.39 0.38 0.35 0.33 0.37 0.34 0.32 0.35 0.32 0.26 0.24 0.24 0.28 0.31 0.30 0.41 0.47 0.51 0.58 0.56 0.62 0.65 0.68 0.72 0.78 0.81 0.84 0.83 0.84 0.92 0.95 0.93 1.00 1.16 1.19 1.16 1.21 1.24 1.26
0.37 0.38 0.36 0.34 0.34 0.32 0.28 0.29 0.35 0.31 0.23 0.31 0.38 0.29 0.26 0.26 0.29 0.34 0.29 0.20 0.15 0.17 0.16 0.13 0.15 0.17 0.14 0.15 0.20 0.29 0.27 0.30 0.36 0.36 0.44 0.38 0.38 0.41 0.42 0.47 0.43 0.41 0.39 0.38 0.31 0.28 0.24 0.28 0.34 0.40 0.36 0.34 0.30 0.32 0.34 0.31 0.29 0.34 0.32 0.24 0.24 0.26 0.30 0.33 0.37 0.41 0.50 0.53 0.58 0.58 0.58 0.61 0.68 0.69 0.72 0.79 0.85 0.83 0.81 0.85 0.89 0.91 0.94 1.14 1.23 1.22 1.25 1.22
0.39 0.38 0.37 0.35 0.32 0.35 0.28 0.32 0.31 0.16 0.23 0.39 0.31 0.29 0.24 0.25 0.27 0.37 0.27 0.23 0.22 0.18 0.24 0.25 0.23 0.17 0.18 0.21 0.20 0.19 0.25 0.32 0.35 0.42 0.44 0.38 0.37 0.38 0.35 0.49 0.45 0.37 0.37 0.37 0.32 0.26 0.26 0.31 0.33 0.32 0.32 0.31 0.31 0.30 0.32 0.34 0.30 0.32 0.34 0.30 0.24 0.27 0.30 0.31 0.36 0.39 0.42 0.46 0.53 0.51 0.46 0.47 0.59 0.63 0.65 0.69 0.71 0.72 0.77 0.76 0.80 0.86 0.90 1.18 1.16 1.21 1.26 1.28
0.38 0.37 0.37 0.36 0.33 0.32 0.29 0.23 0.17 0.24 0.29 0.33 0.32 0.28 0.23 0.25 0.30 0.32 0.32 0.21 0.11 0.15 0.18 0.16 0.26 0.15 0.20 0.18 0.19 0.19 0.24 0.22 0.33 0.41 0.45 0.41 0.41 0.39 0.39 0.39 0.43 0.35 0.38 0.37 0.31 0.26 0.25 0.32 0.34 0.33 0.28 0.27 0.29 0.29 0.34 0.39 0.36 0.31 0.31 0.30 0.28 0.27 0.27 0.29 0.32 0.34 0.33 0.34 0.44 0.53 0.43 0.41 0.55 0.58 0.61 0.67 0.70 0.68 0.67 0.68 0.75 0.85 0.88 1.10 1.15 1.21 1.23 1.26
0.37 0.37 0.37 0.36 0.33 0.35 0.21 0.14 0.25 0.33 0.31 0.32 0.28 0.26 0.23 0.25 0.34 0.31 0.23 0.17 0.14 0.23 0.18 0.27 0.23 0.23 0.20 0.18 0.18 0.21 0.14 0.16 0.31 0.38 0.43 0.44 0.34 0.40 0.33 0.33 0.40 0.41 0.43 0.42 0.35 0.27 0.28 0.30 0.34 0.34 0.33 0.28 0.27 0.27 0.33 0.36 0.34 0.30 0.34 0.30 0.25 0.28 0.28 0.26 0.31 0.32 0.33 0.41 0.46 0.53 0.48 0.40 0.44 0.55 0.65 0.68 0.66 0.66 0.67 0.68 0.69 0.78 0.82 1.09 1.17 1.20 1.23 1.19
0.38 0.36 0.35 0.36 0.32 0.33 0.29 0.30 0.31 0.32 0.33 0.29 0.29 0.26 0.26 0.27 0.28 0.31 0.27 0.12 0.09 0.27 0.23 0.24 0.26 0.35 0.28 0.25 0.21 0.16 0.17 0.26 0.20 0.25 0.41 0.45 0.39 0.33 0.33 0.30 0.33 0.35 0.39 0.38 0.24 0.29 0.31 0.26 0.30 0.31 0.32 0.29 0.25 0.29 0.34 0.38 0.32 0.29 0.33 0.31 0.26 0.24 0.27 0.26 0.27 0.30 0.30 0.34 0.34 0.39 0.46 0.39 0.38 0.47 0.60 0.66 0.61 0.61 0.63 0.65 0.65 0.71 0.79 0.97 1.05 1.15 1.14 1.12
0.37 0.36 0.35 0.35 0.33 0.29 0.40 0.36 0.39 0.36 0.33 0.31 0.28 0.27 0.25 0.26 0.25 0.22 0.14 0.09 0.23 0.23 0.38 0.28 0.40 0.33 0.32 0.28 0.22 0.20 0.18 0.29 0.21 0.25 0.34 0.45 0.41 0.33 0.29 0.30 0.32 0.36 0.38 0.37 0.29 0.32 0.33 0.31 0.29 0.32 0.32 0.28 0.29 0.31 0.35 0.34 0.28 0.30 0.33 0.31 0.28 0.26 0.21 0.21 0.24 0.25 0.26 0.26 0.26 0.34 0.38 0.33 0.31 0.40 0.47 0.57 0.59 0.58 0.58 0.59 0.64 0.71 0.78 0.89 0.99 0.98 1.10 1.20
0.37 0.35 0.35 0.36 0.32 0.31 0.30 0.36 0.44 0.42 0.35 0.32 0.28 0.27 0.25 0.22 0.19 0.17 0.16 0.09 0.17 0.11 0.29 0.35 0.30 0.31 0.31 0.25 0.23 0.23 0.19 0.22 0.29 0.32 0.32 0.34 0.37 0.39 0.34 0.39 0.32 0.32 0.35 0.37 0.35 0.35 0.37 0.38 0.35 0.30 0.31 0.32 0.32 0.32 0.33 0.31 0.30 0.34 0.28 0.26 0.22 0.20 0.21 0.19 0.18 0.21 0.22 0.19 0.23 0.28 0.31 0.31 0.26 0.35 0.41 0.41 0.46 0.55 0.59 0.63 0.67 0.75 0.82 0.84 0.99 1.11 1.08 1.12
0.36 0.35 0.34 0.40 0.33 0.32 0.36 0.36 0.36 0.32 0.34 0.32 0.29 0.25 0.25 0.23 0.14 0.13 0.10 0.15 0.17 0.25 0.32 0.31 0.33 0.34 0.32 0.27 0.23 0.25 0.24 0.22 0.25 0.33 0.30 0.36 0.36 0.36 0.36 0.31 0.34 0.30 0.33 0.37 0.35 0.36 0.37 0.37 0.34 0.32 0.34 0.36 0.35 0.31 0.33 0.33 0.30 0.28 0.24 0.21 0.18 0.15 0.16 0.16 0.16 0.15 0.14 0.14 0.21 0.28 0.29 0.29 0.21 0.28 0.38 0.46 0.54 0.56 0.57 0.61 0.67 0.69 0.78 0.84 0.98 1.09 1.12 1.08
0.37 0.35 0.41 0.43 0.42 0.49 0.33 0.34 0.33 0.35 0.33 0.31 0.28 0.25 0.18 0.11 0.22 0.11 0.10 0.24 0.13 0.34 0.31 0.35 0.37 0.34 0.34 0.32 0.28 0.28 0.25 0.25 0.25 0.30 0.32 0.31 0.32 0.31 0.31 0.25 0.27 0.24 0.25 0.30 0.31 0.36 0.32 0.33 0.36 0.36 0.35 0.34 0.34 0.29 0.28 0.28 0.27 0.25 0.24 0.19 0.14 0.13 0.13 0.12 0.14 0.11 0.09 0.10 0.16 0.23 0.25 0.24 0.20 0.25 0.38 0.45 0.47 0.55 0.59 0.60 0.65 0.72 0.82 0.84 0.92 0.99 1.10 1.10
0.39 0.38 0.49 0.51 0.51 0.52 0.55 0.47 0.36 0.32 0.32 0.32 0.26 0.25 0.19 0.15 0.09 0.15 0.17 0.19 0.17 0.35 0.32 0.41 0.34 0.34 0.34 0.31 0.29 0.30 0.32 0.25 0.26 0.28 0.37 0.36 0.32 0.32 0.32 0.31 0.32 0.28 0.22 0.29 0.31 0.31 0.28 0.33 0.35 0.35 0.35 0.33 0.35 0.27 0.25 0.23 0.25 0.23 0.20 0.16 0.13 0.12 0.12 0.12 0.14 0.14 0.12 0.12 0.15 0.17 0.21 0.18 0.19 0.25 0.32 0.39 0.47 0.53 0.59 0.62 0.64 0.71 0.79 0.82 0.94 0.99 1.01 1.06
0.41 0.43 0.53 0.57 0.56 0.49 0.47 0.32 0.31 0.33 0.30 0.30 0.26 0.22 0.20 0.12 0.10 0.20 0.20 0.25 0.34 0.38 0.36 0.35 0.35 0.36 0.34 0.29 0.31 0.33 0.30 0.32 0.28 0.28 0.34 0.35 0.32 0.30 0.32 0.32 0.33 0.31 0.32 0.32 0.29 0.29 0.24 0.24 0.28 0.33 0.30 0.35 0.32 0.31 0.28 0.25 0.24 0.22 0.21 0.18 0.15 0.15 0.14 0.11 0.13 0.12 0.12 0.14 0.15 0.17 0.18 0.15 0.14 0.17 0.28 0.31 0.38 0.47 0.54 0.59 0.64 0.71 0.81 0.89 0.97 0.94 0.87 1.05
0.47 0.54 0.58 0.62 0.55 0.58 0.37 0.30 0.30 0.31 0.30 0.27 0.24 0.20 0.16 0.16 0.17 0.18 0.25 0.30 0.33 0.32 0.30 0.35 0.32 0.33 0.32 0.31 0.32 0.33 0.34 0.31 0.32 0.31 0.33 0.33 0.30 0.29 0.30 0.28 0.32 0.33 0.33 0.28 0.31 0.31 0.28 0.26 0.28 0.35 0.36 0.36 0.30 0.33 0.34 0.31 0.27 0.25 0.22 0.20 0.17 0.16 0.22 0.16 0.17 0.14 0.15 0.14 0.14 0.16 0.12 0.15 0.18 0.23 0.26 0.28 0.32 0.34 0.46 0.52 0.57 0.64 0.76 0.90 0.87 0.87 0.84 0.98
0.50 0.55 0.59 0.53 0.43 0.35 0.29 0.31 0.31 0.32 0.34 0.30 0.28 0.20 0.17 0.18 0.18 0.31 0.27 0.33 0.31 0.28 0.29 0.31 0.31 0.30 0.30 0.28 0.31 0.29 0.35 0.32 0.35 0.34 0.34 0.34 0.35 0.30 0.33 0.33 0.30 0.33 0.30 0.27 0.31 0.28 0.30 0.27 0.33 0.33 0.38 0.37 0.34 0.34 0.33 0.33 0.21 0.23 0.21 0.15 0.15 0.20 0.21 0.21 0.21 0.20 0.17 0.16 0.14 0.18 0.17 0.15 0.16 0.20 0.25 0.26 0.28 0.31 0.33 0.41 0.48 0.52 0.64 0.80 0.82 0.80 0.80 0.86
0.46 0.54 0.51 0.52 0.44 0.36 0.32 0.31 0.34 0.39 0.39 0.32 0.23 0.22 0.26 0.29 0.33 0.31 0.35 0.30 0.30 0.31 0.30 0.23 0.27 0.29 0.29 0.29 0.28 0.26 0.29 0.33 0.36 0.35 0.31 0.35 0.31 0.34 0.32 0.33 0.36 0.33 0.36 0.33 0.32 0.38 0.30 0.28 0.35 0.33 0.31 0.37 0.40 0.37 0.34 0.33 0.31 0.26 0.18 0.17 0.20 0.23 0.22 0.21 0.18 0.23 0.19 0.15 0.15 0.17 0.16 0.17 0.16 0.13 0.21 0.25 0.25 0.29 0.31 0.33 0.39 0.46 0.54 0.61 0.76 0.79 0.83 0.85
0.46 0.51 0.53 0.53 0.40 0.37 0.31 0.35 0.41 0.41 0.37 0.31 0.25 0.26 0.35 0.28 0.31 0.31 0.33 0.32 0.31 0.31 0.28 0.25 0.27 0.32 0.28 0.29 0.28 0.29 0.34 0.32 0.33 0.32 0.31 0.34 0.30 0.37 0.35 0.34 0.38 0.36 0.36 0.40 0.35 0.37 0.38 0.30 0.34 0.34 0.34 0.36 0.41 0.40 0.33 0.34 0.34 0.29 0.24 0.25 0.17 0.17 0.16 0.19 0.19 0.19 0.21 0.17 0.18 0.21 0.20 0.20 0.21 0.20 0.22 0.22 0.23 0.26 0.32 0.34 0.34 0.38 0.49 0.58 0.78 0.79 0.85 0.86
0.50 0.52 0.38 0.41 0.42 0.35 0.32 0.41 0.43 0.38 0.32 0.27 0.27 0.23 0.27 0.26 0.30 0.31 0.31 0.34 0.33 0.32 0.26 0.27 0.27 0.30 0.32 0.30 0.31 0.32 0.33 0.27 0.33 0.34 0.29 0.35 0.31 0.38 0.37 0.44 0.39 0.39 0.36 0.39 0.37 0.38 0.39 0.30 0.32 0.35 0.34 0.36 0.39 0.37 0.26 0.26 0.31 0.33 0.34 0.28 0.26 0.23 0.20 0.17 0.17 0.21 0.25 0.24 0.20 0.22 0.24 0.22 0.25 0.26 0.28 0.26 0.26 0.28 0.28 0.32 0.32 0.34 0.44 0.52 0.64 0.79 0.84 0.81
0.45 0.40 0.37 0.43 0.42 0.31 0.34 0.43 0.39 0.33 0.27 0.23 0.25 0.24 0.24 0.25 0.31 0.30 0.34 0.31 0.29 0.29 0.27 0.26 0.27 0.27 0.30 0.33 0.34 0.31 0.38 0.35 0.33 0.33 0.38 0.40 0.39 0.50 0.42 0.46 0.44 0.47 0.46 0.41 0.37 0.40 0.36 0.38 0.30 0.35 0.38 0.37 0.31 0.33 0.28 0.27 0.24 0.25 0.27 0.28 0.27 0.23 0.26 0.23 0.23 0.17 0.21 0.24 0.25 0.21 0.19 0.20 0.27 0.32 0.32 0.31 0.32 0.31 0.30 0.32 0.33 0.33 0.40 0.50 0.64 0.75 0.78 0.78
0.56 0.42 0.37 0.45 0.39 0.33 0.38 0.39 0.31 0.25 0.23 0.28 0.27 0.22 0.22 0.26 0.25 0.28 0.31 0.32 0.30 0.32 0.29 0.27 0.26 0.25 0.28 0.31 0.34 0.43 0.39 0.38 0.40 0.36 0.36 0.41 0.44 0.41 0.49 0.47 0.48 0.46 0.45 0.44 0.37 0.39 0.37 0.36 0.31 0.37 0.34 0.32 0.30 0.33 0.33 0.31 0.26 0.24 0.24 0.26 0.27 0.22 0.20 0.17 0.17 0.21 0.18 0.21 0.23 0.23 0.20 0.25 0.29 0.32 0.35 0.37 0.37 0.36 0.32 0.34 0.35 0.35 0.38 0.47 0.56 0.67 0.77 0.79
0.49 0.34 0.34 0.45 0.41 0.36 0.36 0.31 0.25 0.27 0.25 0.21 0.21 0.23 0.22 0.28 0.25 0.26 0.28 0.29 0.28 0.29 0.33 0.30 0.28 0.27 0.29 0.32 0.39 0.41 0.40 0.38 0.39 0.41 0.43 0.39 0.49 0.49 0.50 0.53 0.49 0.49 0.44 0.38 0.36 0.39 0.39 0.38 0.37 0.36 0.35 0.31 0.32 0.35 0.37 0.36 0.31 0.26 0.25 0.25 0.28 0.25 0.22 0.19 0.15 0.18 0.18 0.18 0.22 0.24 0.23 0.28 0.31 0.30 0.31 0.38 0.42 0.37 0.34 0.35 0.36 0.36 0.38 0.44 0.52 0.57 0.75 0.73
0.45 0.42 0.43 0.42 0.43 0.38 0.35 0.29 0.27 0.26 0.24 0.25 0.28 0.27 0.25 0.25 0.24 0.27 0.26 0.27 0.25 0.32 0.29 0.26 0.27 0.25 0.29 0.35 0.37 0.37 0.41 0.40 0.42 0.41 0.43 0.44 0.49 0.51 0.54 0.52 0.51 0.49 0.50 0.44 0.43 0.41 0.45 0.40 0.37 0.39 0.45 0.43 0.36 0.37 0.37 0.37 0.33 0.27 0.25 0.27 0.27 0.24 0.22 0.21 0.20 0.22 0.20 0.18 0.15 0.18 0.18 0.29 0.36 0.34 0.33 0.32 0.38 0.40 0.36 0.36 0.38 0.36 0.39 0.43 0.48 0.50 0.59 0.71
0.51 0.48 0.44 0.46 0.45 0.39 0.36 0.25 0.24 0.26 0.28 0.28 0.30 0.26 0.28 0.25 0.23 0.25 0.25 0.24 0.25 0.26 0.27 0.25 0.24 0.30 0.30 0.37 0.38 0.36 0.41 0.35 0.43 0.43 0.46 0.49 0.50 0.55 0.54 0.52 0.52 0.48 0.47 0.48 0.44 0.53 0.40 0.42 0.40 0.36 0.35 0.38 0.31 0.33 0.33 0.36 0.34 0.27 0.24 0.24 0.25 0.28 0.27 0.24 0.24 0.25 0.22 0.21 0.17 0.16 0.14 0.26 0.33 0.37 0.37 0.35 0.34 0.35 0.35 0.35 0.39 0.38 0.39 0.44 0.51 0.55 0.64 0.71
0.60 0.53 0.44 0.44 0.46 0.40 0.32 0.32 0.28 0.28 0.27 0.26 0.27 0.24 0.25 0.26 0.29 0.28 0.25 0.23 0.27 0.30 0.29 0.26 0.26 0.27 0.27 0.34 0.35 0.39 0.40 0.41 0.41 0.50 0.52 0.52 0.53 0.59 0.56 0.54 0.52 0.49 0.51 0.53 0.52 0.58 0.43 0.45 0.40 0.33 0.32 0.28 0.22 0.23 0.24 0.27 0.28 0.28 0.25 0.25 0.24 0.25 0.27 0.25 0.21 0.24 0.22 0.25 0.22 0.17 0.16 0.30 0.34 0.35 0.34 0.32 0.26 0.29 0.35 0.34 0.39 0.42 0.40 0.49 0.67 0.68 0.71 0.69
0.52 0.37 0.43 0.43 0.45 0.39 0.39 0.36 0.31 0.29 0.26 0.28 0.25 0.26 0.27 0.24 0.29 0.29 0.27 0.27 0.32 0.32 0.30 0.28 0.28 0.30 0.29 0.31 0.31 0.33 0.37 0.43 0.45 0.47 0.49 0.49 0.51 0.54 0.55 0.53 0.51 0.48 0.51 0.54 0.54 0.56 0.44 0.47 0.48 0.43 0.40 0.36 0.33 0.38 0.38 0.36 0.32 0.27 0.25 0.24 0.24 0.24 0.27 0.28 0.26 0.25 0.23 0.28 0.25 0.21 0.21 0.31 0.32 0.32 0.26 0.23 0.20 0.27 0.31 0.33 0.37 0.50 0.57 0.65 0.66 0.73 0.81 0.77
0.58 0.44 0.42 0.38 0.43 0.40 0.35 0.33 0.31 0.30 0.26 0.31 0.26 0.29 0.26 0.26 0.28 0.27 0.33 0.25 0.29 0.26 0.28 0.28 0.29 0.27 0.26 0.28 0.30 0.32 0.38 0.42 0.46 0.46 0.48 0.50 0.52 0.54 0.55 0.53 0.52 0.51 0.52 0.52 0.57 0.53 0.46 0.40 0.43 0.46 0.46 0.52 0.57 0.54 0.48 0.42 0.33 0.31 0.27 0.24 0.25 0.23 0.24 0.26 0.25 0.23 0.32 0.33 0.27 0.24 0.34 0.29 0.34 0.32 0.29 0.26 0.26 0.29 0.29 0.30 0.49 0.52 0.59 0.64 0.70 0.70 0.77 0.81
0.48 0.52 0.53 0.53 0.42 0.37 0.36 0.35 0.35 0.29 0.29 0.32 0.31 0.35 0.29 0.25 0.25 0.25 0.29 0.33 0.30 0.35 0.28 0.25 0.27 0.29 0.29 0.27 0.31 0.31 0.35 0.38 0.40 0.37 0.47 0.51 0.50 0.52 0.49 0.53 0.51 0.49 0.50 0.50 0.53 0.49 0.46 0.41 0.43 0.43 0.48 0.51 0.52 0.54 0.53 0.47 0.41 0.36 0.31 0.27 0.25 0.25 0.24 0.24 0.27 0.29 0.32 0.30 0.32 0.30 0.37 0.36 0.36 0.33 0.30 0.29 0.29 0.29 0.33 0.40 0.51 0.53 0.53 0.58 0.64 0.64 0.69 0.75
0.62 0.60 0.57 0.61 0.47 0.48 0.45 0.43 0.40 0.35 0.31 0.34 0.32 0.32 0.31 0.30 0.26 0.27 0.27 0.26 0.30 0.33 0.33 0.21 0.24 0.28 0.29 0.31 0.32 0.32 0.34 0.31 0.32 0.40 0.42 0.46 0.48 0.48 0.46 0.48 0.49 0.49 0.48 0.47 0.50 0.53 0.47 0.41 0.44 0.45 0.46 0.48 0.50 0.52 0.54 0.47 0.44 0.41 0.35 0.29 0.27 0.26 0.24 0.24 0.28 0.31 0.32 0.33 0.38 0.37 0.43 0.39 0.39 0.33 0.30 0.33 0.39 0.42 0.46 0.52 0.54 0.53 0.51 0.54 0.57 0.59 0.64 0.67
0.53 0.53 0.51 0.60 0.57 0.51 0.50 0.46 0.41 0.38 0.32 0.32 0.29 0.32 0.34 0.31 0.26 0.28 0.29 0.27 0.24 0.27 0.34 0.27 0.29 0.30 0.29 0.30 0.32 0.32 0.35 0.39 0.41 0.36 0.44 0.45 0.47 0.50 0.47 0.47 0.46 0.48 0.48 0.45 0.48 0.52 0.45 0.40 0.46 0.48 0.46 0.47 0.48 0.52 0.54 0.51 0.45 0.39 0.40 0.32 0.29 0.28 0.27 0.26 0.27 0.30 0.32 0.35 0.35 0.38 0.42 0.41 0.41 0.38 0.36 0.44 0.51 0.49 0.50 0.53 0.50 0.47 0.51 0.51 0.50 0.49 0.51 0.65
0.64 0.69 0.70 0.57 0.49 0.49 0.50 0.47 0.42 0.38 0.33 0.31 0.30 0.34 0.31 0.31 0.30 0.33 0.28 0.32 0.30 0.28 0.30 0.29 0.31 0.32 0.32 0.32 0.32 0.34 0.44 0.43 0.44 0.43 0.45 0.46 0.42 0.51 0.47 0.47 0.50 0.44 0.46 0.43 0.45 0.46 0.45 0.44 0.49 0.47 0.43 0.43 0.48 0.48 0.47 0.52 0.48 0.43 0.39 0.35 0.33 0.29 0.29 0.28 0.26 0.29 0.30 0.33 0.34 0.37 0.39 0.39 0.44 0.46 0.44 0.46 0.46 0.47 0.46 0.47 0.48 0.47 0.46 0.47 0.46 0.46 0.50 0.56
0.70 0.74 0.74 0.64 0.48 0.53 0.47 0.49 0.46 0.40 0.33 0.36 0.33 0.31 0.31 0.31 0.32 0.33 0.28 0.32 0.37 0.36 0.36 0.36 0.34 0.31 0.32 0.31 0.31 0.35 0.42 0.45 0.45 0.46 0.45 0.46 0.50 0.53 0.54 0.52 0.50 0.46 0.44 0.42 0.44 0.41 0.45 0.46 0.43 0.43 0.38 0.39 0.46 0.47 0.49 0.49 0.45 0.39 0.38 0.39 0.38 0.40 0.33 0.32 0.31 0.31 0.32 0.35 0.35 0.36 0.40 0.46 0.51 0.51 0.44 0.46 0.47 0.46 0.45 0.45 0.46 0.47 0.46 0.47 0.49 0.51 0.53 0.54
Wind_Speed
18 18 19 19 19 19 19 19 20 20 20 20 20 19 19 19 18 18 18 17 17 17 16 16 16 15 15 14 14 14 14 14 15 15 17 17 16 15 14 13 13 14 16 17 17 17 17 18 18 17 17 15 15 13 13 13 12 10 9 9 8 6 5 4 3 3 3 3 3 3 3 4 3 4 5 5 6 8 7 6 6 6 7 9 12 14 15 16
19 19 19 19 19 20 20 20 20 20 20 20 20 20 20 20 19 19 19 18 17 17 17 16 16 16 15 15 14 14 14 14 16 17 18 19 17 16 15 14 14 14 16 18 18 18 18 18 18 17 16 15 14 14 13 13 12 11 10 9 9 8 7 6 5 4 3 3 3 4 3 4 4 4 5 5 6 7 7 7 7 7 8 10 13 14 15 17
19 19 20 20 20 20 20 20 21 21 21 21 21 20 20 20 20 20 19 19 18 18 17 17 17 16 16 15 14 13 13 14 15 17 18 18 18 18 17 15 16 16 16 17 18 19 18 18 18 18 17 15 14 14 13 12 12 12 10 9 9 9 8 8 8 6 5 4 4 5 4 4 4 4 5 5 5 6 7 7 7 8 10 11 13 15 15 16
20 20 20 20 21 21 21 21 21 21 21 21 21 21 21 21 21 20 20 19 19 18 18 18 17 16 16 15 14 13 13 13 13 14 14 14 17 17 17 16 15 16 17 17 18 19 19 18 18 18 17 16 15 15 14 14 13 12 11 11 9 8 8 9 8 8 9 6 4 5 5 4 5 5 5 6 5 5 6 8 8 9 11 12 13 15 15 16
20 21 21 21 21 22 22 22 22 22 22 22 22 22 22 22 21 21 20 20 20 19 19 18 18 17 16 15 14 12 12 11 8 8 9 11 14 16 17 17 16 16 17 18 19 19 19 19 18 19 18 16 16 16 16 16 14 12 12 11 10 9 8 8 8 9 10 7 4 4 4 5 6 5 5 6 5 5 7 8 9 9 11 13 13 14 15 15
21 22 22 22 22 22 22 23 23 23 23 23 23 23 23 22 22 21 20 20 20 20 19 19 18 17 16 15 14 13 12 10 7 6 7 7 10 15 17 18 17 17 17 18 19 20 20 20 19 19 18 17 17 17 16 17 16 13 13 11 11 11 10 9 10 11 11 8 6 4 5 6 6 5 5 6 4 5 7 9 9 9 10 12 13 14 15 15
22 23 23 23 23 23 24 24 24 24 24 24 24 24 23 23 22 21 21 21 20 20 20 19 18 17 16 15 14 14 14 15 13 10 8 7 8 12 16 17 18 18 18 19 20 20 20 21 20 20 18 17 18 18 16 16 16 15 14 12 13 12 11 12 13 12 11 10 7 5 6 8 7 6 6 6 4 5 8 9 9 9 11 12 12 13 14 14
23 24 24 24 24 25 25 25 25 25 25 25 25 24 24 23 23 22 21 21 21 20 19 19 18 17 16 15 15 15 16 18 17 14 12 10 9 10 14 17 18 19 20 21 21 20 20 21 21 20 19 18 18 18 17 16 16 17 16 14 13 12 11 12 13 12 13 11 9 7 8 8 7 6 7 7 5 6 8 10 10 10 11 11 12 13 13 13
25 25 25 25 25 26 26 26 26 26 26 26 26 25 25 24 23 23 22 22 20 20 19 18 18 17 16 16 16 16 17 18 17 16 15 13 12 12 13 15 18 19 20 21 21 21 21 21 22 21 19 19 19 18 17 16 16 16 17 17 15 13 13 13 13 13 14 12 10 10 9 9 8 7 7 8 8 7 8 10 11 10 10 11 12 13 13 13
26 26 26 26 27 27 27 27 27 27 27 27 27 26 25 25 24 24 23 22 21 20 19 18 18 17 17 17 17 17 16 16 16 16 15 14 13 14 14 14 17 20 20 21 22 22 22 21 21 21 20 19 19 19 18 17 16 16 17 17 18 16 15 14 13 13 14 14 13 11 10 10 9 8 7 9 10 8 9 10 11 10 10 11 12 12 13 13
27 27 27 28 28 28 28 28 28 28 28 28 27 27 26 25 25 24 24 22 21 20 20 19 18 18 18 18 18 18 16 14 13 15 15 15 15 16 16 15 16 19 20 20 21 22 23 21 21 20 20 19 19 19 20 19 17 17 17 16 17 18 17 16 14 14 14 14 14 13 12 11 11 10 8 10 11 10 10 11 12 11 10 10 11 12 12 13
28 28 28 28 29 29 29 29 29 29 29 28 28 27 27 26 26 25 24 23 22 21 20 19 19 18 19 19 21 21 18 15 14 15 15 16 16 16 17 16 16 18 19 19 20 22 23 22 22 21 20 19 19 18 18 20 20 19 18 17 17 18 18 19 17 16 15 14 14 13 12 12 12 11 9 11 12 12 11 12 12 11 10 10 11 11 11 13
29 29 29 29 29 30 30 30 30 30 30 29 28 28 27 26 26 25 24 23 22 22 21 20 20 19 19 20 22 22 21 19 18 18 17 17 18 18 18 18 17 18 19 19 19 21 22 22 23 23 21 20 19 18 15 16 19 19 18 17 17 16 17 18 18 17 17 15 14 14 13 12 13 12 11 11 13 13 12 12 12 11 11 10 10 10 11 12
30 30 30 30 30 30 31 31 31 31 31 30 29 28 28 27 26 26 25 24 23 22 21 20 20 20 20 21 21 22 22 22 22 22 20 19 19 19 19 19 19 19 18 19 19 19 21 22 23 23 23 22 20 20 18 15 17 19 18 17 17 16 16 17 18 18 18 16 16 15 13 12 13 14 13 12 14 13 13 13 12 11 11 11 10 10 11 12
31 31 31 31 31 31 31 32 31 31 31 30 30 29 28 28 27 26 25 24 23 23 21 21 21 21 21 23 23 23 23 23 23 24 23 21 20 19 20 21 20 20 19 19 18 19 20 21 23 22 22 23 22 20 19 18 17 18 18 18 18 18 16 16 19 19 18 17 18 17 14 13 13 14 15 15 15 14 13 13 13 12 12 11 11 11 11 11
32 32 32 32 33 32 32 32 32 32 31 31 31 30 29 28 27 26 25 24 23 22 21 21 21 22 21 21 21 21 23 24 24 24 24 23 22 20 21 22 21 21 20 19 19 19 20 21 22 23 22 23 23 21 18 18 18 18 19 18 18 18 17 16 17 19 20 17 18 19 15 13 12 12 16 17 15 15 14 13 13 12 12 12 12 11 11 11
33 33 33 33 33 33 33 33 33 32 32 32 31 30 30 28 27 26 25 24 23 22 22 22 22 23 23 22 21 21 22 24 24 23 24 24 24 22 21 22 22 22 21 21 20 20 20 21 20 21 22 22 22 22 20 20 19 18 19 18 18 19 18 16 15 17 21 18 18 19 17 15 12 10 15 17 15 16 14 14 14 13 12 12 12 12 11 11
33 34 34 34 34 34 34 34 34 33 32 32 31 31 29 27 27 27 25 24 23 23 24 24 24 23 22 22 23 22 21 22 24 24 24 24 25 24 22 22 22 22 22 21 22 22 20 21 20 20 22 23 23 23 23 22 19 18 19 18 18 19 18 18 16 15 19 20 18 19 19 18 14 11 14 16 16 16 15 15 14 13 13 13 13 13 12 12
33 34 34 34 35 35 35 35 34 33 33 32 31 30 27 25 25 26 25 24 25 25 24 24 25 23 21 22 23 24 22 21 23 25 25 24 24 25 23 22 23 23 23 21 21 23 21 20 21 22 22 24 25 25 25 23 20 19 20 19 19 19 19 19 17 16 18 19 19 19 19 19 17 15 16 17 17 17 16 16 15 13 14 14 13 13 13 13
33 34 34 34 35 35 35 35 34 33 33 31 30 29 26 25 25 25 25 27 28 29 30 29 29 29 28 26 23 22 22 21 23 25 26 25 24 25 24 24 24 24 23 22 21 23 22 21 22 23 23 24 26 26 26 25 23 21 21 20 20 20 20 19 18 17 17 18 19 20 19 20 19 18 17 17 18 18 16 16 15 13 14 15 15 13 14 14
34 34 35 35 35 35 35 35 34 33 32 30 30 28 25 25 26 26 29 31 31 32 35 35 34 34 33 32 28 23 22 23 24 25 26 26 25 25 25 25 25 24 24 23 22 22 23 23 24 24 24 24 25 26 26 26 26 24 22 21 21 20 20 19 19 18 18 17 17 20 21 21 20 19 18 17 18 19 17 16 15 14 15 16 16 15 14 14
35 35 36 36 36 36 36 35 33 33 32 30 29 27 25 26 27 29 32 32 32 33 36 37 37 37 34 34 35 30 26 25 26 27 27 27 27 26 25 26 26 24 24 25 23 23 24 24 24 24 24 24 25 25 27 27 26 25 23 21 21 20 19 20 20 19 18 17 16 19 22 21 20 20 19 19 19 19 19 18 16 16 17 16 17 16 15 14
36 36 37 36 36 37 36 34 33 32 30 29 28 27 27 28 29 30 32 33 34 33 35 36 37 38 36 35 35 34 31 29 28 28 29 29 29 27 26 26 26 25 26 27 26 24 23 23 24 25 24 25 26 25 27 26 25 25 24 23 21 20 19 19 20 21 19 18 17 17 20 20 21 21 21 21 21 20 20 20 18 18 18 17 17 16 15 15
37 38 38 38 38 38 37 35 32 31 30 30 28 27 28 30 30 31 32 34 34 33 34 37 37 36 36 34 33 35 34 31 30 30 31 31 30 28 27 27 27 27 27 29 29 27 24 21 22 25 26 26 26 26 26 25 24 25 26 25 21 21 21 19 19 21 20 20 19 17 17 19 20 22 22 21 22 22 21 21 20 19 19 18 18 17 17 16
39 39 39 39 38 39 39 34 30 30 31 30 28 28 30 30 29 31 31 32 33 32 32 34 34 34 35 33 33 35 34 33 33 31 32 34 32 29 28 27 27 28 29 30 30 28 26 23 22 25 27 27 27 26 26 25 23 25 27 27 24 22 22 21 20 20 21 21 21 18 17 17 19 22 22 21 21 22 21 21 21 19 18 18 19 18 18 16
40 40 41 40 40 40 38 32 31 33 32 29 30 31 32 30 29 30 29 30 32 30 27 28 28 29 31 33 33 33 33 35 34 32 33 35 34 30 28 27 27 28 29 28 27 26 26 26 24 24 26 28 27 26 26 26 23 23 24 26 26 24 23 23 21 20 21 21 21 22 20 17 18 21 22 22 22 22 21 21 21 20 19 18 19 18 17 16
41 41 42 42 41 40 36 33 34 34 31 31 32 33 33 31 29 29 27 27 27 24 21 22 23 24 27 31 33 32 31 31 33 35 35 35 35 32 31 29 27 28 27 26 27 26 26 28 27 26 25 26 27 26 25 26 24 22 22 24 27 26 24 24 23 21 21 20 20 23 23 19 18 20 22 24 25 24 23 22 22 21 20 20 20 18 18 17
42 42 42 42 41 39 36 35 35 34 32 33 34 35 34 32 30 27 24 23 21 18 18 20 20 22 24 28 33 34 29 26 30 35 36 36 36 34 33 33 30 28 28 28 28 27 26 29 29 28 26 25 25 25 25 26 25 22 21 22 25 27 26 25 23 21 21 21 21 23 24 20 19 19 21 24 26 26 25 24 23 22 22 22 22 20 19 18
42 42 41 41 40 38 35 35 35 35 35 36 36 35 35 32 29 25 24 24 21 17 19 20 20 22 23 26 32 34 31 27 27 31 35 37 37 35 33 33 32 30 31 31 30 26 26 28 29 29 27 25 25 25 25 26 24 22 22 21 21 24 26 26 24 21 20 21 22 23 24 20 18 19 21 23 25 25 24 23 22 23 24 23 23 21 20 18
42 41 41 40 38 35 34 34 34 36 37 37 37 36 35 31 28 26 25 25 22 17 18 18 18 21 23 25 29 32 33 31 27 28 34 37 37 37 33 33 33 30 30 33 32 29 27 27 28 29 27 25 24 25 26 26 24 22 22 21 20 21 23 24 25 23 22 23 24 24 23 21 18 18 20 22 23 23 22 22 23 24 24 23 22 22 21 19
42 41 39 37 34 33 33 32 34 36 37 37 37 36 33 29 27 28 26 24 21 18 17 17 16 19 23 25 28 30 32 33 29 28 32 35 36 37 34 33 34 31 30 32 32 31 30 28 28 29 29 26 25 25 25 26 25 23 22 21 19 19 20 21 23 25 24 24 24 25 25 23 21 19 18 19 21 22 22 22 24 25 24 23 22 22 22 21
41 39 37 34 32 32 31 32 35 37 36 36 35 32 28 27 27 28 27 23 20 18 17 18 19 20 23 25 29 30 31 32 32 31 32 34 35 36 36 35 33 33 32 32 31 31 32 31 28 28 30 29 26 25 25 25 25 24 23 22 21 19 19 20 20 23 24 23 23 25 26 25 24 21 20 20 20 22 22 22 23 25 26 25 24 23 22 22
39 37 34 31 31 30 29 32 35 36 35 34 31 26 25 25 26 27 27 23 19 19 20 22 24 24 23 25 27 29 30 30 33 33 32 35 35 36 38 38 36 34 31 29 29 29 29 31 32 29 29 31 29 26 25 25 26 26 25 23 22 19 18 19 19 19 21 21 22 24 25 25 24 23 24 24 21 21 22 23 24 25 27 26 24 24 24 24
38 34 30 29 29 28 29 33 34 34 33 29 25 23 23 24 24 24 25 22 21 22 23 24 26 26 25 25 24 26 28 28 31 33 32 34 35 35 37 39 40 37 31 28 29 29 29 29 33 32 28 30 32 29 26 25 25 26 25 23 23 21 17 17 18 18 18 18 21 24 23 22 23 22 23 25 24 22 22 23 25 25 26 26 25 24 25 25
35 31 29 28 27 26 30 33 33 33 29 23 19 18 19 19 17 18 20 21 22 24 26 26 27 27 26 25 24 25 26 25 29 32 32 34 35 35 36 38 40 38 33 30 28 29 31 29 32 33 29 30 33 31 27 25 25 25 25 25 24 22 19 16 17 19 18 16 18 21 22 21 20 19 21 24 26 26 25 24 25 26 27 27 25 24 25 25
32 29 28 27 24 27 30 31 31 30 26 20 15 14 14 15 13 15 19 21 22 24 26 25 25 25 26 24 22 23 24 25 28 30 30 33 35 36 35 35 39 40 37 33 28 27 30 28 29 33 32 31 32 32 30 27 24 24 26 27 24 22 20 18 16 17 18 17 17 18 20 20 19 19 21 22 24 26 27 26 25 25 27 27 25 25 26 25
30 28 28 25 24 28 30 29 28 27 24 19 14 13 13 15 17 18 20 21 22 24 24 23 22 22 23 22 21 20 19 21 26 28 29 31 33 35 36 34 38 42 40 35 30 27 27 26 28 33 35 33 31 32 33 30 25 24 26 26 23 22 22 20 16 15 16 16 15 17 19 19 19 18 19 21 23 23 25 27 26 25 25 26 26 26 26 25
29 28 26 23 25 29 29 27 26 25 22 19 15 13 13 15 17 18 19 21 22 22 23 23 23 22 21 21 22 20 18 18 21 25 28 30 30 32 35 34 35 40 43 39 32 28 26 24 26 32 35 32 31 31 32 33 30 26 25 24 23 23 23 22 18 15 15 14 13 15 18 18 18 17 17 21 23 22 23 25 26 26 24 25 27 27 27 25
28 26 22 23 26 28 27 25 24 23 21 19 17 15 14 15 16 17 17 18 19 20 22 24 24 24 23 22 23 21 20 19 19 20 23 26 26 26 26 28 30 34 40 41 37 31 27 23 23 28 33 32 31 32 32 33 33 29 25 25 25 23 22 22 20 17 14 13 13 14 15 15 16 17 17 18 20 21 21 22 24 26 24 23 26 27 26 25
27 23 21 24 26 27 27 24 21 20 19 18 18 17 16 16 16 16 16 16 17 18 21 23 25 26 25 23 23 22 20 20 20 19 19 18 19 20 21 23 25 27 32 38 40 36 29 26 23 25 31 33 33 34 35 34 33 31 27 26 26 24 22 21 21 20 17 13 11 12 13 13 15 16 17 17 18 19 19 20 22 24 24 24 25 26 26 26
26 22 22 25 25 26 26 22 18 19 19 18 19 19 18 16 16 16 16 16 16 17 19 22 24 26 25 23 23 22 22 22 20 20 19 15 15 19 20 22 24 26 29 32 37 39 33 28 26 24 28 34 35 34 35 34 34 32 29 27 26 25 23 21 21 22 20 16 12 10 10 9 11 14 15 15 16 16 17 18 19 22 24 24 24 25 27 26
25 23 24 23 24 26 24 19 18 19 18 19 19 20 19 17 16 16 16 17 16 16 18 20 22 25 25 24 23 23 24 24 22 21 19 16 16 19 20 20 23 26 28 29 33 38 35 28 27 26 25 30 33 33 33 34 34 33 31 28 26 26 25 22 19 19 20 19 16 13 10 6 6 11 12 11 12 15 16 16 17 20 22 23 25 25 27 27
24 23 23 22 24 26 22 18 19 19 18 20 21 21 20 19 17 16 16 16 16 16 16 18 20 23 24 23 23 24 24 24 25 24 20 17 17 20 20 20 24 25 26 27 29 33 34 30 28 27 23 26 31 31 31 33 32 33 33 31 28 27 26 24 20 18 19 20 19 15 12 8 7 9 10 8 9 12 15 15 16 18 19 20 23 24 25 27
25 23 22 23 25 24 20 18 19 19 19 20 21 20 20 19 18 17 16 16 15 15 16 17 19 21 24 24 23 24 23 24 24 22 20 19 19 20 20 20 24 26 25 27 28 29 32 32 30 27 23 25 30 29 29 32 33 32 33 34 32 29 27 25 21 19 18 20 20 18 13 11 10 10 9 9 10 12 14 15 15 17 18 17 18 21 23 26
26 23 22 24 25 22 18 18 19 19 20 21 21 20 20 19 19 18 17 15 13 14 16 17 19 20 23 25 24 23 23 24 24 20 18 20 21 21 20 19 23 27 27 28 30 29 31 32 31 29 26 26 28 29 28 31 33 32 32 35 35 32 29 26 22 20 19 19 21 19 14 13 12 10 9 11 13 12 13 15 15 15 15 13 14 17 21 24
26 23 23 24 23 20 18 19 19 19 20 21 20 20 20 19 18 19 17 14 12 14 15 16 18 19 21 24 24 23 22 21 22 21 17 19 22 22 21 22 24 26 27 29 31 30 30 32 33 32 29 24 22 22 23 27 31 33 34 35 37 35 31 27 24 22 19 18 20 19 15 14 14 12 11 12 13 13 14 15 14 14 13 11 12 15 18 20
25 22 23 24 23 20 19 20 20 19 19 21 19 18 20 19 18 19 17 14 13 13 14 14 15 17 19 23 24 24 23 21 21 22 18 17 21 22 21 22 22 21 24 29 31 29 30 33 35 35 32 26 21 18 17 21 26 32 35 35 36 37 34 30 27 24 20 18 18 18 16 15 15 14 13 12 12 12 14 16 15 14 13 12 13 14 16 18
25 23 23 24 23 21 21 21 21 20 20 20 19 19 19 18 17 18 17 15 14 12 12 12 13 15 18 22 24 24 23 22 21 22 20 18 20 21 21 22 20 18 20 26 29 28 30 33 35 37 34 29 26 22 19 19 20 24 32 35 34 36 37 34 28 25 23 19 17 18 16 14 15 15 15 13 12 13 15 16 15 13 12 13 15 16 17 18
26 25 24 24 23 22 22 23 22 21 20 19 18 18 17 17 17 18 17 17 15 12 11 12 13 14 16 20 23 23 22 22 22 21 21 20 20 21 21 22 21 19 18 23 27 27 29 32 34 36 35 31 29 26 23 23 21 19 26 34 34 34 36 35 30 27 25 21 19 19 16 14 16 15 16 16 14 14 16 15 12 11 11 13 15 15 15 17
27 26 25 25 24 23 22 22 20 19 18 18 17 17 16 17 18 18 17 17 16 13 11 12 13 14 15 18 22 23 22 23 24 22 22 21 21 21 22 23 23 20 19 21 24 26 29 31 32 34 34 32 31 30 26 24 24 21 22 29 34 33 34 35 32 29 26 23 22 22 18 16 16 15 16 17 14 13 15 13 10 11 12 12 14 12 10 14
28 27 26 25 23 21 21 20 19 18 17 17 17 17 16 18 19 18 18 17 16 14 12 12 13 12 14 16 21 23 21 23 26 25 23 23 22 23 23 24 23 23 22 21 22 25 27 29 31 33 34 33 31 31 29 25 23 23 23 26 30 30 32 33 32 30 28 25 23 23 22 19 17 17 19 19 15 13 14 11 9 10 10 11 12 11 8 10
28 28 26 24 22 20 19 19 18 17 17 16 17 18 18 19 19 18 17 15 14 13 12 12 13 11 12 14 18 22 22 23 25 26 26 26 26 25 25 25 26 25 25 23 22 24 25 26 28 30 34 36 34 31 30 26 23 26 26 24 24 25 28 31 33 31 29 27 24 23 23 20 16 17 21 20 17 15 14 12 10 10 10 10 11 11 11 12
Wind_Direction
323 322 321 320 319 318 317 316 315 315 314 313 312 310 309 308 306 304 303 300 298 297 296 296 295 294 293 291 289 286 284 276 269 261 250 247 243 239 240 234 229 223 219 221 219 215 211 213 215 214 216 217 221 223 225 227 228 233 233 238 241 241 245 242 254 274 297 284 208 185 179 169 161 148 149 154 148 149 158 159 158 158 156 156 155 158 161 160
324 323 321 320 319 318 317 316 315 313 312 312 311 309 308 307 305 303 301 299 296 295 294 293 293 292 291 290 288 287 285 278 270 262 250 247 244 239 238 231 225 219 216 218 218 215 213 213 213 214 215 217 219 220 225 225 224 228 232 237 232 235 244 235 249 258 264 278 231 196 192 181 172 165 169 170 161 159 158 157 159 158 155 153 156 161 165 165
322 322 321 320 319 318 317 316 314 313 312 311 309 307 306 305 304 302 300 298 295 293 292 290 290 289 289 287 287 286 284 280 273 261 253 249 242 237 234 226 221 217 215 216 216 216 215 214 213 214 216 218 218 218 222 222 221 224 230 236 225 230 242 242 256 258 251 265 239 203 192 191 190 188 194 185 171 172 169 164 165 163 158 158 162 165 168 170
321 321 320 319 319 318 317 316 314 313 312 310 308 306 305 303 302 301 298 296 294 292 289 288 287 286 285 284 283 283 281 280 271 260 257 248 236 230 226 220 216 215 216 216 216 216 216 215 213 214 216 219 220 220 223 221 221 221 227 234 225 223 236 245 254 263 265 261 230 204 191 205 207 198 201 190 180 192 186 173 169 168 163 163 166 167 170 173
321 320 320 319 318 317 316 315 314 313 311 310 308 306 304 302 301 299 297 295 293 291 289 286 283 282 281 279 277 276 276 275 267 259 260 247 232 224 221 218 214 214 215 216 217 216 215 215 214 214 216 220 222 222 224 222 221 224 231 231 219 221 231 237 244 259 263 254 248 229 209 222 212 204 202 189 197 213 199 182 173 171 165 164 167 168 172 175
320 320 319 318 317 316 316 315 313 312 311 309 307 305 303 302 300 298 296 294 291 289 287 283 280 277 275 273 271 267 262 261 266 269 264 248 231 222 219 218 216 216 215 216 218 216 213 213 214 214 217 221 223 224 224 221 221 227 234 226 213 223 229 222 234 253 257 252 258 234 216 228 215 208 201 188 204 206 190 181 174 170 166 164 167 171 175 176
320 319 318 317 316 315 314 313 312 310 309 308 307 305 303 301 299 296 294 292 290 287 285 281 277 273 270 267 263 259 255 257 261 260 256 249 233 223 218 217 217 217 217 218 218 215 213 213 214 215 218 222 225 226 226 223 225 229 234 230 220 227 232 229 237 248 247 248 257 237 219 221 211 210 206 196 199 184 178 176 173 170 167 169 170 173 179 179
319 318 317 316 315 314 313 311 310 309 308 307 306 304 302 300 297 295 293 291 289 285 282 278 274 269 265 261 259 256 253 255 257 251 248 246 236 224 218 217 217 216 218 220 219 215 214 215 214 215 219 223 225 227 227 226 228 230 233 234 227 226 229 232 237 239 237 241 252 247 233 223 211 214 213 205 193 175 175 177 176 172 169 176 177 174 181 184
319 318 317 315 315 313 311 310 309 307 306 305 304 303 301 298 296 294 292 290 287 283 280 275 271 265 260 257 257 257 254 255 255 245 241 242 234 224 220 219 216 215 218 221 220 216 215 217 216 217 221 224 226 228 228 228 230 230 233 235 233 230 227 229 234 234 232 235 245 245 237 230 218 220 219 206 198 184 175 175 177 176 173 177 180 178 182 188
318 317 316 315 314 312 311 309 308 307 305 303 302 300 298 296 294 293 291 289 285 281 278 272 267 261 256 253 253 255 256 258 253 239 236 238 231 224 223 223 217 214 218 222 221 217 217 219 218 220 224 227 228 230 230 230 233 232 234 237 237 237 234 232 232 230 230 234 241 241 236 233 222 224 225 204 197 189 178 176 178 180 179 179 181 182 184 188
317 316 315 314 313 311 310 309 307 306 304 302 300 298 296 294 292 290 289 286 283 280 276 269 263 258 254 252 251 251 252 255 248 236 238 236 228 225 225 224 219 216 218 222 221 218 219 220 219 221 225 227 230 232 233 233 236 236 236 239 239 238 238 236 233 231 232 235 237 237 239 236 224 223 224 205 197 195 186 180 180 183 184 183 182 183 187 191
316 315 314 313 312 311 309 308 307 306 304 301 299 296 294 292 290 288 285 283 281 278 275 267 260 255 254 252 249 248 247 250 247 239 239 236 230 229 228 225 221 219 220 222 221 219 220 220 221 223 223 226 229 232 234 233 236 238 237 240 240 239 238 235 234 233 233 235 233 233 237 235 226 224 224 207 198 199 192 186 186 187 188 188 185 185 189 194
316 315 314 313 311 310 309 307 306 305 303 300 298 296 293 291 288 285 282 280 277 276 273 265 259 255 253 253 251 248 248 249 248 245 243 240 236 231 228 226 223 221 222 223 222 220 221 222 223 225 226 227 228 229 235 235 234 237 237 237 239 239 238 233 233 233 233 233 228 228 232 231 226 223 222 207 195 195 193 189 191 190 191 194 193 191 192 196
316 315 314 312 311 310 308 307 306 304 302 299 297 295 293 290 286 283 279 277 274 273 270 262 258 254 252 254 255 251 248 248 248 246 242 240 237 232 226 225 225 223 222 223 223 222 222 222 224 227 227 229 230 231 236 238 233 233 234 234 235 238 238 231 230 232 232 230 224 225 231 231 229 222 214 202 193 195 194 192 194 194 193 194 197 196 196 200
316 315 314 312 311 310 308 306 305 303 301 299 297 294 292 289 285 281 277 274 272 269 264 259 256 254 256 258 258 254 246 244 245 242 239 238 236 231 224 223 225 224 223 223 222 224 223 222 224 226 227 228 231 233 235 236 232 230 231 231 232 236 240 234 228 226 227 226 219 221 228 229 230 222 210 200 197 200 199 197 198 198 196 194 198 199 199 202
317 316 314 313 312 310 308 306 305 303 300 298 296 294 290 286 282 279 276 273 270 264 258 256 254 254 258 260 257 251 242 239 240 238 236 235 234 230 224 223 224 224 224 223 223 225 224 223 224 226 227 226 226 229 232 234 230 228 228 230 230 231 236 238 232 222 219 222 217 218 224 225 228 222 208 200 200 202 198 198 201 200 201 199 200 201 201 202
318 317 315 314 313 311 309 307 305 303 300 299 296 293 288 283 279 277 274 270 267 260 256 256 255 253 255 258 257 250 241 237 236 235 233 232 232 229 224 222 223 223 224 224 224 226 225 223 224 225 226 226 224 223 227 229 226 224 225 229 230 230 231 233 236 224 213 216 217 216 221 222 224 216 203 199 203 202 195 198 203 204 208 207 205 204 203 204
318 317 316 315 313 312 310 309 307 304 301 300 296 293 288 282 278 274 270 266 264 259 256 256 253 253 253 251 250 248 246 239 232 233 231 228 229 227 223 222 222 221 222 225 224 225 225 223 224 225 225 224 223 221 223 224 223 223 223 225 228 231 232 229 231 224 210 212 215 215 219 221 217 205 200 204 209 207 201 205 208 207 209 208 209 209 206 207
319 318 316 315 314 312 310 309 307 305 303 301 298 294 287 280 277 271 265 262 260 257 257 253 245 249 257 253 247 246 249 242 230 230 229 225 226 224 222 222 221 220 221 224 222 221 223 223 223 225 224 223 222 221 223 223 225 226 224 224 226 228 232 230 228 223 211 213 215 215 218 219 216 208 208 214 217 214 206 207 213 213 211 209 211 212 211 211
321 319 318 317 315 313 311 309 307 305 304 301 299 295 288 285 280 271 268 265 262 259 260 258 249 250 258 257 251 245 245 241 231 229 227 223 222 221 221 221 220 221 222 222 221 219 221 224 224 225 225 222 222 223 224 224 226 230 228 226 226 227 230 228 228 223 213 215 217 217 220 219 218 215 213 213 215 216 207 205 213 214 213 213 213 212 211 214
322 321 319 318 317 314 312 311 307 304 303 300 296 294 291 292 286 277 276 270 264 261 259 258 255 252 252 253 252 247 245 241 233 229 225 222 220 220 219 218 219 221 222 221 220 220 223 228 227 225 225 224 223 222 223 224 225 229 231 230 228 227 228 227 228 221 211 217 219 217 221 221 220 218 215 212 211 215 212 211 214 212 214 216 214 212 211 214
323 322 321 320 318 316 313 312 309 306 303 298 294 292 292 291 285 281 279 272 265 261 258 255 253 252 250 249 250 248 246 242 233 228 223 219 219 220 217 216 219 221 219 219 220 220 224 230 228 224 225 225 224 222 222 224 225 227 229 232 230 227 226 226 227 220 211 219 221 216 221 224 222 220 219 215 213 217 218 219 218 211 213 215 213 214 214 214
323 322 321 320 319 317 314 312 310 307 303 298 295 294 293 290 286 283 279 273 267 261 257 253 250 248 246 244 244 243 241 238 233 227 221 218 219 219 218 217 219 220 218 219 220 221 224 229 227 224 224 223 224 222 221 223 225 226 226 230 231 228 225 224 224 220 216 222 222 217 222 226 224 224 225 222 220 223 223 223 222 215 215 214 211 214 214 213
322 321 320 320 319 317 315 311 309 308 304 298 295 295 295 291 288 285 280 273 267 261 257 253 248 245 243 240 238 237 237 236 233 227 220 218 218 219 221 219 218 221 220 219 221 224 226 227 224 223 224 223 222 222 220 221 223 225 225 227 230 228 227 228 225 220 218 221 221 220 224 224 223 224 224 223 224 226 224 222 223 221 219 212 209 214 214 214
322 320 319 319 317 316 314 309 307 309 305 299 298 298 296 292 289 286 281 273 268 263 257 252 248 245 241 236 233 232 234 234 232 228 222 220 218 218 222 221 220 222 221 219 222 227 228 227 222 221 223 222 222 222 221 221 223 225 225 226 228 228 228 230 229 223 219 218 217 221 230 227 223 224 223 221 224 226 222 220 219 219 218 210 209 214 214 214
322 320 319 318 316 316 313 308 306 307 302 298 301 299 296 293 290 287 280 272 269 265 255 246 244 243 236 232 230 228 232 234 231 228 225 220 218 219 221 222 223 224 222 220 224 228 227 226 223 221 221 221 222 223 221 220 223 226 225 224 226 228 229 228 228 228 224 222 220 223 231 232 224 225 225 223 224 224 222 222 217 215 215 210 209 213 214 216
322 321 320 318 316 315 311 306 306 305 299 297 299 297 293 292 289 287 279 270 267 262 249 240 240 240 234 229 225 223 230 233 228 227 226 220 218 219 221 222 222 223 222 221 225 227 224 223 223 221 221 221 221 222 220 218 222 226 223 221 223 226 228 227 228 231 229 229 228 222 224 232 231 228 225 223 225 224 223 224 216 213 214 210 208 212 215 218
322 321 320 319 317 313 308 304 304 302 299 298 297 294 290 289 285 281 273 266 265 258 247 243 241 239 235 227 221 223 231 230 224 225 224 220 218 218 222 223 222 222 220 221 226 225 222 222 222 220 220 222 222 221 218 217 221 224 222 221 221 223 226 227 228 232 233 234 233 223 220 231 237 230 225 223 225 224 224 224 217 215 217 212 210 214 215 217
323 322 321 320 318 314 308 303 301 301 300 298 295 292 288 284 278 271 263 258 260 260 253 247 243 236 232 226 222 224 229 229 227 223 219 220 218 218 223 223 222 223 221 224 228 225 222 222 221 221 222 222 221 220 217 217 219 220 221 223 221 220 222 225 228 231 233 234 234 227 223 231 239 231 225 224 225 225 225 227 222 217 217 213 212 214 213 213
324 323 322 321 319 317 313 306 302 303 302 297 294 291 285 277 268 261 255 251 254 263 254 246 244 235 228 226 224 225 226 229 231 221 216 219 217 218 223 222 222 224 223 225 228 226 224 222 221 222 222 221 220 219 216 217 217 215 219 223 222 220 219 222 225 228 232 233 232 229 224 229 239 234 227 226 226 225 223 225 222 213 211 211 209 210 208 210
326 324 323 323 321 320 317 313 310 307 303 298 295 290 280 270 260 253 252 251 254 261 254 250 251 239 231 228 225 225 225 228 229 221 216 217 215 216 220 219 220 222 223 224 225 225 224 222 220 221 221 219 218 218 216 214 214 213 215 217 219 219 218 220 221 222 230 234 229 228 227 231 238 235 229 226 224 223 223 224 218 209 210 212 210 212 210 211
326 324 324 323 321 319 317 316 315 311 304 299 295 288 276 267 256 249 251 252 253 255 255 259 258 250 245 238 230 225 224 225 226 222 217 216 215 216 218 218 216 217 221 222 221 221 222 223 221 218 218 217 215 216 214 210 211 212 212 212 215 215 214 219 220 221 230 235 230 228 229 234 240 236 231 229 225 224 226 225 215 209 215 216 214 217 215 211
327 326 325 324 323 323 322 322 321 316 309 302 293 282 273 264 256 252 250 248 255 259 257 260 257 253 252 245 234 226 223 223 223 223 219 216 217 217 218 219 217 217 221 220 219 219 220 223 222 218 216 215 214 214 212 208 208 211 210 210 213 213 212 218 222 225 232 233 231 229 229 235 239 236 231 231 231 227 224 221 216 215 217 215 213 218 217 213
329 328 326 326 327 327 329 330 329 324 318 308 294 280 270 260 257 256 250 250 261 260 257 260 256 251 249 242 236 229 225 223 221 221 220 216 217 218 217 219 218 218 220 219 219 218 218 220 219 217 214 213 214 215 213 209 208 211 211 211 215 216 215 219 222 227 231 232 228 226 228 234 236 233 230 230 231 229 225 221 218 218 215 211 213 219 218 213
331 330 329 330 332 332 334 336 335 333 328 319 303 286 271 258 257 262 257 259 260 255 259 261 251 247 246 239 236 233 230 227 220 220 221 219 219 219 218 218 218 217 217 219 219 218 220 222 218 217 216 213 213 214 213 210 210 211 211 213 217 215 216 223 227 227 229 231 227 223 228 233 235 235 230 228 228 227 227 224 222 218 212 211 215 217 215 210
334 333 332 333 336 338 339 340 340 340 338 331 316 296 273 259 268 277 267 262 259 256 261 257 242 239 239 237 236 232 233 232 222 219 222 222 222 221 220 220 218 217 216 217 219 217 221 223 216 214 217 215 212 211 211 212 212 209 210 215 216 214 217 225 229 226 226 230 228 226 229 230 234 236 229 226 227 224 223 223 224 218 211 212 214 213 212 210
336 334 333 333 335 339 341 341 343 344 344 340 326 308 285 269 278 282 270 265 263 258 255 246 234 236 238 239 239 236 241 239 226 221 220 221 223 222 221 221 218 217 217 217 220 221 221 223 217 212 214 214 210 209 213 216 214 210 211 214 213 213 220 225 228 224 222 228 228 226 228 226 226 229 225 222 224 224 221 219 222 219 212 213 212 208 208 209
335 332 333 333 336 340 341 340 342 343 344 343 333 317 299 284 284 284 276 272 267 258 250 240 234 238 242 242 240 241 249 242 230 226 222 221 223 222 222 222 219 218 217 217 220 221 221 223 219 213 212 210 207 208 213 215 216 216 214 211 210 213 216 219 224 223 220 226 226 225 227 225 223 223 223 220 218 222 224 218 217 218 215 213 208 203 204 208
335 333 336 338 338 340 340 338 340 342 343 344 340 326 309 299 294 289 283 277 269 259 252 244 239 239 241 241 239 240 244 238 233 231 224 222 222 220 220 222 220 218 217 217 218 218 220 222 219 212 209 207 207 209 211 211 213 216 215 210 211 216 215 216 220 223 224 224 223 226 227 227 226 220 218 218 214 217 224 219 214 214 215 210 203 202 206 209
336 335 339 341 340 340 337 335 338 341 342 343 341 333 320 308 300 295 290 282 270 260 253 248 244 240 239 239 237 236 238 234 231 228 224 224 220 216 218 219 219 219 217 216 216 215 218 221 221 213 206 206 209 210 210 209 209 211 213 210 209 213 215 216 218 221 224 223 219 223 227 231 231 221 217 218 212 211 219 220 213 212 212 208 203 205 207 206
335 333 334 338 341 341 338 336 339 342 341 340 340 338 331 315 303 298 295 288 276 264 257 251 245 240 238 237 234 233 232 229 227 224 223 227 221 215 217 218 219 219 217 216 213 212 214 217 218 215 209 208 211 211 210 211 211 210 213 213 210 210 211 214 217 216 219 224 221 219 225 234 228 215 211 212 206 205 213 216 211 209 210 207 207 208 204 204
335 334 333 336 341 342 339 338 341 341 339 340 339 338 336 325 311 303 296 290 282 271 262 252 245 240 236 234 233 231 228 228 225 222 228 239 228 217 219 222 222 220 218 217 214 211 212 215 216 216 216 213 211 209 209 212 213 212 214 215 213 211 211 214 216 212 214 220 222 223 226 228 212 199 195 196 198 200 204 208 204 205 209 207 207 208 204 205
337 335 335 339 340 338 336 336 339 339 338 339 337 335 337 334 323 311 302 295 285 276 267 255 248 241 235 233 232 229 229 228 222 222 234 241 226 218 223 225 222 220 218 215 212 209 210 214 215 217 222 218 209 207 210 211 213 213 213 214 214 212 211 214 216 213 214 216 216 219 219 212 201 195 193 196 201 197 196 200 199 200 207 206 205 208 206 202
334 331 331 337 338 336 334 335 337 336 335 336 334 334 338 338 334 324 312 302 290 279 271 260 251 243 236 232 230 228 227 224 221 227 235 232 225 227 229 226 221 218 215 210 208 207 208 212 213 212 215 212 204 203 207 209 212 214 212 211 214 213 209 212 215 213 215 214 210 212 213 204 193 194 203 212 214 206 195 194 195 195 202 205 200 201 198 194
331 330 331 334 336 335 332 333 334 333 333 333 332 332 335 337 339 335 321 309 300 288 277 265 256 248 238 231 229 227 224 223 225 231 232 228 228 228 229 231 225 219 217 213 210 210 208 210 211 208 207 206 203 205 207 206 209 214 212 209 211 213 209 208 212 213 212 210 208 210 209 196 190 200 215 211 209 204 189 186 189 186 191 197 191 190 193 193
333 332 332 334 336 332 328 330 331 330 332 332 329 330 333 333 337 339 330 318 310 298 284 270 258 250 239 232 230 227 224 225 225 226 229 229 226 224 229 234 228 221 219 215 212 212 211 212 212 209 207 206 203 205 209 208 209 212 213 209 208 211 210 207 209 212 209 204 206 208 203 193 196 207 207 195 193 192 181 181 183 176 176 182 179 183 189 192
334 332 332 334 334 330 328 328 328 327 329 330 326 325 328 330 333 338 335 327 315 301 290 277 260 250 242 234 231 227 226 227 223 222 229 230 225 227 231 230 226 225 222 215 212 213 213 213 213 211 211 210 206 207 210 212 211 211 212 210 207 209 210 209 209 208 205 203 202 201 198 197 199 198 189 183 185 184 178 176 174 170 174 178 176 176 180 184
335 330 330 331 328 326 326 324 322 323 325 326 324 321 323 327 330 334 337 332 321 305 295 287 270 256 247 237 230 228 229 228 223 221 224 228 228 227 225 223 221 221 219 213 211 212 213 214 214 212 213 213 214 216 216 216 217 215 213 211 207 207 209 210 209 205 204 206 199 192 194 195 189 184 179 178 177 171 165 161 159 165 176 179 176 176 178 182
334 329 327 327 324 321 320 319 317 319 322 323 322 320 319 323 327 331 334 332 324 311 298 292 281 265 252 239 230 227 228 226 222 219 220 226 229 224 220 218 214 214 216 213 210 210 211 213 213 213 215 218 219 220 218 217 221 224 217 211 207 206 208 210 210 205 204 207 201 192 193 192 186 183 180 176 168 160 158 156 156 164 171 174 174 174 180 188
334 331 327 324 322 319 318 318 317 317 319 320 321 321 317 319 325 329 331 330 325 317 301 292 287 273 257 242 230 226 227 226 223 220 219 223 225 220 217 214 213 216 218 212 210 212 211 211 211 211 215 219 220 219 217 215 218 225 223 212 207 207 207 208 210 208 204 206 204 196 194 195 190 184 179 174 167 159 163 164 163 166 165 167 173 172 178 188
332 330 326 322 321 320 319 319 318 316 317 319 320 320 318 318 322 323 326 327 323 316 305 296 292 277 260 246 233 228 228 226 224 223 221 222 224 221 218 217 218 221 219 215 215 214 211 211 211 211 214 216 215 215 213 212 216 223 224 213 207 208 208 206 208 209 205 203 203 199 196 195 192 188 183 180 179 176 174 172 170 174 173 172 179 181 179 183
330 330 327 322 319 318 317 317 317 315 316 318 318 318 316 316 318 318 321 324 320 313 306 299 293 278 262 252 239 232 230 227 226 226 223 222 224 223 222 223 224 224 220 218 216 213 211 212 211 212 214 214 214 215 213 212 216 218 216 210 207 213 213 207 206 209 208 204 203 202 198 190 185 188 189 189 190 191 190 189 187 187 185 182 185 188 189 193